Regional Weather Roundup
Issued by NWS Bismarck, ND

Home | Current Version | Previous Version | Text Only | Print | Product List | Glossary Off
Versions: 1 2 3 4 5 6 7 8 9 10 11 12 13 14 15 16 17 18 19 20 21 22 23 24 25 26 27 28 29 30 31 32 33 34 35 36 37 38 39 40 41 42 43 44 45 46 47 48 49 50

000
ASUS43 KBIS 280159
RWRBIS

NWR BROADCAST TEXT
NATIONAL WEATHER SERVICE BISMARCK ND
900 PM CDT WED AUG 27 2014

NOTE: "FAIR" INDICATES FEW OR NO CLOUDS BELOW 12,000 FEET WITH NO
SIGNIFICANT WEATHER AND/OR OBSTRUCTIONS TO VISIBILITY.


CITY           SKY/WX    TMP DP  RH WIND       PRES   REMARKS
WILLISTON      CLEAR     75  53  46 S9        29.94F
MINOT          CLEAR     67  57  70 SE7       29.99S
MINOT AFB      NOT AVBL
BISMARCK       PTCLDY    68  62  81 S6        30.04S
DICKINSON      NOT AVBL
GARRISON         N/A     65  60  84 S6        30.01R
HETTINGER ARPT MOCLDY    65  61  87 SE7       30.06R
JAMESTOWN      NOT AVBL
BEACH            N/A     64  57  77 SE8       30.02R
CARRINGTON     FAIR      63  63 100 SE7       30.06R
CROSBY         FAIR      70  57  64 S10       29.93S
HARVEY         FAIR      64  59  82 SE6       30.03R
HAZEN          FAIR      64  57  77 SE7       30.02R
LINTON         CLOUDY    66  61  82 E6        30.05S
MANDAN         FAIR      63  61  94 SE7       30.06R
OAKES            N/A     66  64  94 E7        30.07S
RUGBY          FAIR      64  59  82 SE6       30.01S
STANLEY        FAIR      66  59  77 S7        29.99S
TIOGA          FAIR      66  57  72 S12       30.00S
WATFORD CITY   FAIR      72  50  46 SE9       29.95S
$$

CITY           SKY/WX    TMP DP  RH WIND       PRES   REMARKS
GRAND FORKS    CLEAR     65  58  78 SE5       30.06S
GRAND FORKS AF NOT AVBL
DEVILS LAKE    CLEAR     66  55  68 S8        30.03S
FARGO          CLEAR     63  59  87 E6        30.07S
CAVALIER       FAIR      66  57  72 SE5       30.04S
GRAFTON        FAIR      61  57  88 S8        30.05S
GWINNER        MOCLDY    66  63  88 SE7       30.08F
LANGDON        FAIR      63  55  77 S8        30.05S
ROLLA          FAIR      59  59 100 SE3       30.04R
WALHALLA         N/A     63  61  94 SE3       30.04S
$$

CITY           SKY/WX    TMP DP  RH WIND       PRES   REMARKS
ABERDEEN       CLOUDY    66  63  90 E7        30.05S
MOBRIDGE       CLOUDY    69  64  84 E9        30.01R
RAPID CITY     LGT RAIN  64  62  93 SE7       30.08R
GLASGOW        CLEAR     77  53  43 N3        29.91S
SIDNEY         CLEAR     70  55  60 S7        29.95S
WOLF POINT     CLEAR     77  52  41 W5        29.90S
GLENDIVE       CLEAR     73  54  49 S6        29.98R
MILES CITY     PTCLDY    76  50  40 S6        29.96S
BAKER          MOCLDY    70  58  65 SE12      30.03R
$$

CITY           SKY/WX    TMP DP  RH WIND       PRES   REMARKS
BILLINGS       PTCLDY    79  45  29 N7        30.01S
GREAT FALLS    CLEAR     73  48  41 W6        30.01S
$$



USA.gov is the U.S. government's official web portal to all federal, state and local government web resources and services.